Wind_Speed
43 44 44 45 45 44 43 43 42 41 40 40 40 40 41 41 42 43 45 46 47 49 51 54 56 58 60 62 63 65 65 65 63 62 62 62 62 62 61 59 58 58 58 58 58 58 58 59 61 63 65 65 66 68 69 70 72 74 74 69 63 59 57 57 58 58 58 59 62 62 62 61 59 59 58 57 57 55 52 52 52 51 50 49 48 49 49 49
43 43 43 43 42 41 41 40 39 39 40 40 41 41 42 44 45 47 48 49 50 50 52 54 56 58 60 62 64 65 66 67 66 65 63 63 64 64 64 62 61 60 59 59 60 59 59 59 60 63 65 66 65 67 69 70 70 71 71 69 65 60 59 59 60 61 61 61 64 64 64 63 62 61 61 59 59 57 54 53 52 51 52 51 49 49 50 50
42 43 43 42 42 41 41 41 41 42 42 43 44 44 46 47 49 51 51 52 53 54 55 56 57 59 60 62 64 66 67 68 69 68 66 65 64 65 65 65 64 63 62 61 61 61 61 60 61 63 65 67 67 67 68 69 68 68 68 66 64 63 63 63 63 64 64 65 67 66 65 64 64 64 63 60 59 59 56 54 52 52 52 52 51 51 50 50
43 43 43 43 43 43 44 44 44 44 45 45 46 47 48 50 52 53 54 54 55 56 57 57 59 60 61 63 65 66 68 69 70 70 70 68 66 66 67 67 67 66 65 64 63 63 63 62 63 63 64 66 68 68 67 67 67 67 65 62 63 66 66 65 66 67 67 69 69 69 68 66 66 66 64 61 59 60 59 56 55 54 54 54 54 53 53 52
44 45 45 46 46 46 46 46 46 47 47 48 48 49 51 53 54 54 55 55 56 57 58 59 60 62 63 64 66 67 68 69 70 71 72 71 70 69 69 69 69 69 68 67 66 65 64 64 64 65 65 65 67 68 67 67 66 66 63 61 63 67 68 69 70 71 71 71 72 72 71 68 68 69 66 62 59 60 61 59 59 58 56 56 55 54 53 52
47 47 48 48 48 48 48 48 49 50 51 52 52 54 54 55 55 55 55 56 57 59 60 61 62 64 65 65 67 68 69 70 70 72 73 74 74 72 71 70 70 70 70 69 68 67 66 65 66 66 66 65 66 67 68 69 68 64 62 63 64 66 69 72 73 74 74 73 73 74 73 73 72 71 68 63 60 62 64 63 62 60 57 55 54 53 52 52
49 50 51 51 51 51 51 52 52 53 54 55 56 57 58 57 57 56 57 57 59 60 62 63 64 65 66 66 68 69 70 70 71 72 74 75 76 75 72 70 70 71 71 71 70 69 68 67 67 67 67 67 66 66 68 70 68 63 62 64 64 65 68 72 74 75 76 75 75 76 78 77 75 72 70 66 62 66 68 65 64 60 56 55 54 54 54 54
51 53 54 54 54 54 54 54 54 55 55 56 57 59 60 59 59 58 58 58 60 61 63 65 65 66 66 66 68 69 69 69 70 73 75 76 77 77 75 73 72 71 72 73 72 72 71 69 69 68 69 69 67 67 68 69 69 65 62 63 65 66 67 70 74 76 77 77 77 80 80 78 75 74 73 70 66 67 68 65 64 61 57 57 56 56 57 58
53 55 56 56 56 56 55 55 54 55 56 57 59 60 61 61 61 59 59 59 60 61 62 64 65 65 64 65 67 68 68 69 70 72 74 76 78 78 77 76 74 73 73 74 74 73 73 72 71 70 70 70 69 69 68 69 69 65 63 64 64 66 68 69 72 76 78 78 79 81 80 78 78 78 76 71 67 68 67 65 64 62 59 58 56 56 58 60
55 57 57 57 57 57 56 56 56 57 58 60 61 62 62 62 62 61 60 60 60 60 61 61 62 62 62 62 63 65 66 68 71 72 74 75 77 78 79 78 76 74 74 74 74 74 74 74 73 72 72 71 71 71 70 69 68 65 64 65 64 66 69 70 71 75 78 79 80 80 80 82 83 82 77 71 69 69 68 65 64 64 61 59 58 57 58 62
57 59 59 59 59 60 59 59 59 60 61 63 64 64 64 64 63 62 61 60 59 58 57 57 57 56 56 56 58 60 63 66 69 70 72 74 75 77 79 80 79 77 75 75 75 75 76 76 75 74 73 72 72 72 72 70 68 65 65 66 67 67 69 71 72 75 77 79 80 80 83 86 88 84 75 70 71 71 69 67 65 65 64 62 61 60 60 62
60 61 62 62 63 63 63 63 63 63 65 66 67 66 66 65 63 62 60 58 56 54 52 51 50 50 50 51 52 55 59 62 65 67 70 72 75 77 78 80 80 80 78 77 77 77 77 77 77 77 75 74 74 75 74 72 70 67 65 66 69 69 69 72 74 75 76 78 80 83 86 89 89 81 72 72 74 73 71 69 67 67 67 66 64 63 62 62
62 64 65 66 67 67 67 66 66 67 68 69 69 68 67 65 63 61 58 54 52 49 48 46 45 45 46 47 48 51 54 57 60 64 67 69 72 75 77 79 81 82 81 80 78 78 78 79 79 78 77 76 76 77 75 73 72 69 67 67 70 71 70 71 75 77 77 78 81 85 87 87 85 77 71 76 78 75 74 71 70 70 70 69 67 65 64 64
65 67 68 69 71 72 71 70 69 70 71 71 71 70 68 65 62 58 54 50 48 46 45 43 42 42 43 44 45 48 51 54 57 60 63 66 69 72 75 78 81 83 83 82 80 80 80 80 80 79 79 78 78 77 75 75 74 72 70 68 70 71 71 72 75 78 78 79 82 87 87 84 81 76 74 80 81 79 77 74 72 72 72 71 69 68 67 66
67 69 71 73 76 76 74 72 72 73 73 72 72 71 68 64 59 54 50 47 45 44 43 42 41 41 42 42 43 46 49 52 55 57 60 63 66 68 71 75 79 82 83 83 81 81 81 82 82 81 80 79 79 79 77 77 76 75 73 69 69 70 72 75 77 78 80 82 84 88 84 78 78 76 76 83 84 82 80 78 76 75 75 73 71 70 69 68
69 72 75 77 79 78 76 74 74 75 75 74 73 72 67 61 56 51 48 45 43 42 41 41 41 41 41 41 42 45 47 49 52 55 58 60 63 66 69 72 76 79 82 83 83 83 82 83 83 82 81 81 80 80 79 78 77 76 74 71 70 70 73 78 80 79 81 84 86 86 79 74 76 77 79 85 87 86 84 82 80 78 77 75 73 73 71 70
71 74 78 80 81 80 78 76 76 76 76 75 74 71 65 59 53 50 47 44 42 41 41 40 40 41 41 42 43 44 45 47 49 52 55 58 61 65 68 71 74 77 80 82 83 84 84 84 83 83 82 82 82 81 81 79 78 77 76 74 74 73 74 79 82 82 82 84 85 84 76 72 75 79 83 87 88 88 86 84 82 80 79 77 75 74 73 72
73 77 80 82 82 81 79 78 78 77 77 76 75 70 63 56 52 49 46 44 42 41 40 40 40 41 41 42 42 43 44 45 47 49 52 56 59 63 66 69 72 75 78 80 82 83 84 85 84 84 84 84 84 84 83 81 80 80 80 79 79 78 77 79 83 84 84 84 83 82 77 73 76 81 85 88 89 89 87 85 83 82 81 79 77 75 74 74
75 78 82 84 84 82 80 79 80 79 78 77 75 68 61 55 51 48 46 43 42 41 40 40 40 41 41 41 42 43 43 44 45 47 50 53 57 60 63 67 70 73 76 78 81 83 84 85 85 85 85 86 87 87 86 84 83 84 82 82 81 80 79 79 83 86 87 85 82 79 76 76 78 82 86 89 90 89 87 85 84 83 82 81 78 77 76 75
77 80 83 85 84 83 81 80 81 81 79 77 74 66 59 55 50 48 46 44 42 41 41 40 41 41 41 40 41 42 42 43 44 45 48 50 53 56 60 64 67 71 74 77 79 82 83 85 86 87 88 89 90 89 88 85 85 85 83 82 82 81 81 80 82 85 88 86 82 78 76 79 81 82 87 90 90 89 86 84 83 81 81 80 79 77 76 75
79 82 85 86 85 83 82 81 82 82 80 78 73 65 59 54 50 47 46 44 43 42 41 41 40 40 40 39 40 40 41 42 43 44 46 47 49 52 56 60 64 68 71 75 77 80 82 84 86 89 91 91 90 89 88 86 86 85 84 82 82 82 83 82 82 85 87 85 82 80 78 80 82 83 87 90 90 87 83 82 80 79 79 79 78 77 76 75
80 83 85 86 85 83 82 83 84 84 82 78 72 64 58 54 50 47 45 44 44 43 42 41 40 39 38 37 37 37 38 40 42 43 44 45 47 49 52 56 60 64 68 72 75 78 81 83 87 90 91 91 90 89 88 87 87 86 85 83 83 83 84 84 84 85 87 84 81 82 80 79 81 83 85 88 88 84 81 80 78 77 77 77 76 76 75 75
82 84 86 86 85 83 83 84 86 85 83 79 71 64 58 54 50 47 45 44 43 42 42 41 40 38 37 35 35 34 36 37 40 41 42 43 45 48 50 52 56 60 64 68 71 74 78 82 86 89 90 90 90 89 88 88 88 87 86 85 84 84 85 87 87 87 86 82 81 83 82 79 81 83 85 85 85 83 82 80 79 77 76 75 75 74 74 73
83 85 86 86 85 84 84 85 87 87 85 79 71 63 58 54 50 47 45 44 42 41 41 40 39 37 35 34 32 32 33 35 37 38 39 40 43 46 48 51 53 57 61 64 67 70 75 81 85 87 88 89 90 89 89 89 89 89 88 87 86 86 87 88 88 88 87 83 82 84 84 82 82 83 84 84 84 84 84 81 79 76 74 72 72 71 70 70
84 86 86 85 85 85 85 86 88 88 85 80 71 64 59 54 51 48 47 45 42 41 40 39 37 35 33 32 31 30 31 32 34 35 36 38 41 43 46 49 52 55 58 60 64 68 73 78 82 84 86 88 89 89 90 90 90 90 90 89 89 90 90 89 90 90 88 86 85 85 85 83 83 83 82 83 84 84 83 81 77 74 71 70 69 67 66 66
85 87 86 85 85 85 86 87 88 88 86 80 71 65 60 56 53 50 48 46 43 42 41 39 37 34 32 30 29 28 29 30 31 33 35 36 37 40 43 46 49 52 55 57 61 66 70 74 77 80 82 85 87 88 90 91 92 92 91 91 91 92 92 91 92 91 89 88 87 86 83 81 84 83 80 82 84 83 83 81 76 72 70 67 65 63 62 62
86 86 86 85 85 86 87 88 89 89 86 79 71 65 60 56 54 52 49 46 45 43 41 39 37 35 32 29 28 28 27 28 28 30 33 34 35 37 41 43 45 48 51 54 59 64 68 70 71 74 77 81 84 87 90 91 92 92 91 92 93 93 93 92 93 92 90 90 90 87 82 80 82 82 80 82 82 81 82 80 74 70 68 65 62 60 59 58
86 86 85 85 86 87 88 89 90 89 85 78 70 64 60 57 55 53 51 48 46 45 41 38 36 35 33 30 28 28 26 27 28 28 29 32 33 35 39 41 42 44 47 51 56 61 65 67 67 69 73 77 82 87 89 89 90 91 92 93 94 93 94 92 93 92 91 93 91 86 82 79 78 80 82 83 81 79 78 76 72 68 65 63 61 58 56 56
86 85 84 85 87 88 90 90 90 89 85 78 70 64 60 58 56 54 52 50 47 44 40 37 35 35 34 31 28 27 25 25 28 28 27 28 30 33 37 39 40 41 43 47 52 57 61 64 65 67 71 75 79 84 86 87 89 91 93 94 94 94 94 94 94 94 94 94 88 83 82 77 75 80 85 82 78 74 71 70 70 69 66 63 61 58 56 55
85 84 84 86 88 89 91 92 92 90 85 78 69 64 60 58 57 54 52 49 47 43 39 36 35 34 34 32 29 27 25 24 27 28 27 26 27 30 34 37 39 40 41 43 49 54 56 59 62 66 71 74 76 79 81 85 87 89 92 94 94 94 94 95 96 96 97 91 82 80 82 78 75 80 83 78 72 69 69 70 71 70 68 64 61 59 56 55
85 84 85 86 88 90 92 93 93 91 86 78 70 64 60 58 57 55 51 49 47 44 39 36 35 34 33 33 31 28 25 24 25 27 28 27 26 28 31 34 37 38 39 41 45 50 52 55 59 63 68 71 73 75 77 81 83 85 88 90 93 93 94 96 96 97 95 83 76 80 83 80 75 75 78 76 72 72 72 71 70 70 69 65 62 60 58 56
84 84 85 87 89 91 92 93 93 91 86 78 70 65 61 59 58 55 52 50 49 46 42 37 35 35 33 31 30 29 27 26 26 26 27 27 26 27 28 31 34 35 38 41 42 45 48 51 55 59 62 65 70 72 74 76 78 80 83 86 89 91 93 95 94 94 88 76 75 82 87 82 72 70 77 77 76 75 72 70 69 68 68 66 63 61 59 57
84 84 86 87 89 91 93 93 93 91 86 78 71 65 62 59 58 56 53 52 50 48 44 39 35 34 32 31 29 28 27 26 27 27 26 26 26 26 27 29 31 33 36 39 40 41 43 46 50 54 56 59 63 67 70 72 74 76 79 83 86 89 91 90 88 87 80 74 79 87 90 81 70 71 79 78 77 76 72 69 68 67 67 66 64 62 60 57
84 84 86 88 90 92 93 94 93 91 85 77 70 66 62 60 58 57 56 54 52 49 46 42 38 34 31 31 30 29 27 26 26 27 25 25 25 24 24 26 30 32 33 36 36 37 39 42 44 47 50 55 58 61 65 68 70 71 73 78 81 83 84 83 83 80 75 77 85 92 93 80 70 73 78 77 78 77 74 72 69 67 66 65 64 63 60 57
84 85 87 88 90 92 93 94 94 91 85 77 70 66 63 61 60 59 58 56 54 51 48 44 42 40 36 33 32 30 28 26 26 27 25 23 24 24 23 23 26 29 30 32 33 33 35 38 39 40 44 49 53 56 60 62 63 65 68 71 73 75 77 78 79 76 75 82 92 98 94 78 71 73 77 78 78 77 76 73 69 66 65 64 64 62 60 57
85 85 87 88 90 92 93 94 94 90 85 78 71 66 64 63 61 59 58 57 54 52 49 47 44 43 40 36 34 32 30 27 24 25 25 23 23 22 22 22 23 26 27 27 28 29 30 33 34 36 39 44 48 52 55 57 58 61 63 64 68 75 79 79 79 77 80 87 94 97 88 76 73 76 77 79 78 76 76 73 68 65 64 63 62 61 60 58
85 86 87 88 90 92 93 94 93 90 85 78 71 66 65 63 61 59 58 57 55 51 48 46 43 40 38 36 34 33 30 26 24 24 25 25 23 21 21 22 22 22 24 25 25 25 26 28 31 33 36 39 43 47 52 54 55 58 60 63 70 76 76 73 73 76 82 86 88 88 82 76 76 76 77 80 78 76 76 72 67 65 63 61 60 59 60 58
86 87 87 88 90 91 92 93 93 90 85 78 71 66 64 63 61 60 58 58 57 53 47 43 40 37 35 32 32 32 31 28 26 24 24 25 24 22 20 20 20 20 21 22 22 22 23 26 28 31 33 36 39 43 49 52 53 56 59 61 62 62 62 64 67 72 77 78 77 78 78 76 75 74 76 79 78 76 75 71 67 64 61 58 57 58 59 57
86 87 87 88 90 91 92 93 92 89 84 78 71 67 64 62 60 59 59 58 58 54 48 43 40 37 34 30 28 29 30 29 27 24 22 22 22 21 19 18 18 17 18 19 19 20 21 23 25 27 30 33 35 40 45 49 50 52 52 51 50 51 56 62 67 72 73 70 70 73 74 74 74 75 76 78 77 75 74 72 68 63 59 57 57 58 58 55
86 87 88 89 90 91 92 93 92 88 83 78 72 67 64 62 60 59 59 59 57 53 48 43 40 37 35 32 29 28 28 27 26 23 21 20 20 19 18 17 16 15 15 15 16 17 18 20 22 24 27 30 33 36 41 44 46 47 46 45 47 50 54 60 66 70 68 65 68 71 71 73 75 77 77 78 77 75 73 71 67 63 61 60 60 60 57 54
87 88 88 89 91 91 92 92 91 87 82 76 71 68 65 63 61 60 60 59 56 51 46 43 41 38 36 34 32 30 28 26 25 23 21 20 19 17 16 15 14 14 13 13 13 14 15 17 19 21 25 28 31 34 37 40 43 43 42 42 45 48 52 58 61 63 62 61 65 68 69 72 76 77 77 77 77 75 73 71 67 64 63 63 62 60 56 53
86 87 87 88 90 91 91 91 90 86 81 74 68 66 64 63 61 60 59 59 56 51 47 44 43 41 38 36 34 31 29 28 25 23 21 19 17 16 15 13 12 11 11 10 11 12 13 15 17 19 22 26 29 32 35 38 40 39 38 38 40 42 45 48 52 57 61 61 63 66 67 71 76 78 78 78 78 78 76 74 70 68 66 64 62 59 57 54
84 85 86 87 89 89 90 91 90 85 80 73 66 63 61 60 59 58 58 58 55 51 48 46 44 41 38 35 34 32 30 27 24 21 19 16 15 13 12 11 9 9 9 8 9 10 12 14 15 18 21 24 27 29 32 35 36 35 35 34 35 39 42 45 50 58 62 63 65 66 67 72 79 80 79 80 83 84 81 76 73 71 69 66 62 59 57 54
82 83 85 86 87 88 89 92 91 87 81 74 67 62 60 59 58 58 57 57 55 51 47 45 43 39 36 34 32 30 27 25 23 21 18 16 14 12 11 9 8 7 7 7 8 9 11 13 15 17 20 22 24 26 28 30 30 30 30 31 34 39 44 48 53 58 60 64 66 66 69 76 81 80 80 83 86 86 81 77 74 72 69 66 62 59 56 54
82 83 85 86 86 87 88 90 90 87 83 76 68 63 61 59 57 57 58 57 54 49 46 44 41 37 35 34 32 30 27 26 24 21 19 17 15 12 10 9 7 5 4 5 6 8 9 11 13 15 18 20 21 21 21 23 24 25 26 29 33 39 43 48 52 53 57 62 65 67 73 79 82 81 83 87 87 84 80 76 73 71 68 64 60 56 54 53
82 83 85 86 86 85 86 87 87 86 82 76 68 63 61 60 57 55 57 58 53 49 46 43 41 39 38 36 34 32 30 28 25 22 20 18 15 13 10 8 6 4 2 2 4 6 8 10 12 14 16 17 17 16 17 19 21 23 25 29 34 40 43 46 48 51 57 63 65 70 77 83 83 84 87 88 86 82 78 74 71 69 66 62 57 55 53 52
81 82 85 86 86 85 86 86 85 84 80 74 67 61 58 59 58 56 56 57 55 51 47 44 42 41 39 37 34 33 32 30 27 24 21 19 16 14 11 8 6 4 3 1 2 4 6 8 10 12 14 15 15 15 17 19 22 24 27 31 35 38 40 43 47 54 61 64 67 74 82 85 85 86 88 87 84 81 77 73 70 67 64 60 56 54 52 50
80 81 84 86 86 86 86 85 84 82 79 72 65 59 56 56 57 56 56 56 55 52 48 45 43 41 38 36 34 33 32 30 27 25 22 19 17 15 12 9 7 6 5 4 3 4 5 7 9 11 13 15 16 17 19 22 25 27 29 33 38 40 42 46 51 57 63 67 72 80 85 86 86 86 86 85 83 80 76 73 68 64 61 58 56 54 52 50
80 81 84 85 85 85 86 85 83 82 78 71 64 59 55 53 53 54 56 56 54 51 47 45 43 40 37 35 34 33 32 30 27 25 22 19 17 15 13 11 9 8 7 7 6 5 6 8 9 11 14 16 17 18 21 24 27 30 32 35 39 43 46 49 53 60 66 71 77 83 85 85 85 85 85 84 81 78 74 71 66 62 60 59 57 55 52 50
81 82 84 85 84 85 85 84 83 80 76 69 63 58 54 52 51 51 53 55 54 50 47 44 42 39 36 33 32 32 30 28 26 24 21 19 17 16 15 13 10 10 10 10 8 7 8 9 11 12 15 18 19 20 22 25 28 31 34 35 38 42 46 51 57 65 71 75 79 83 85 84 83 83 84 83 80 76 73 70 66 63 61 60 57 54 52 50
80 81 84 85 84 84 85 84 82 79 74 67 61 57 54 52 50 49 50 52 52 49 45 42 40 36 33 31 30 30 29 26 25 24 21 19 18 17 16 13 12 12 12 12 10 8 9 11 12 14 16 19 22 23 25 27 29 31 34 36 39 43 48 54 62 69 73 76 79 82 83 83 82 81 82 81 78 75 73 70 66 63 61 59 56 54 52 51
81 81 84 85 84 84 84 83 81 78 72 65 59 55 52 51 49 48 48 50 50 47 43 40 37 33 31 30 30 29 28 26 25 24 21 19 18 17 16 14 12 13 14 14 12 10 10 13 15 16 17 20 23 25 27 28 30 32 34 37 41 45 51 58 64 69 72 74 76 78 79 80 81 81 82 80 77 75 72 70 66 63 61 59 56 54 52 51
Wind_Direction
312 311 309 308 307 306 306 306 305 305 303 302 300 298 297 296 294 292 289 286 283 280 277 274 271 269 267 266 266 265 265 265 262 260 258 257 257 256 254 252 249 248 247 246 246 245 245 245 245 245 245 244 243 241 240 239 238 237 236 234 231 228 227 227 228 227 227 230 234 234 233 232 230 231 232 232 235 234 230 233 233 231 230 228 228 228 225 222
316 315 315 314 313 312 312 310 309 308 306 303 302 301 300 299 298 295 292 288 285 281 278 275 272 269 267 265 264 263 263 263 263 261 258 256 256 255 254 253 250 248 246 245 245 244 243 244 244 244 245 245 244 242 241 239 238 238 237 235 231 227 225 225 226 226 226 229 232 233 232 231 229 230 230 230 233 234 229 230 232 232 232 230 227 227 226 224
323 322 320 319 317 315 314 312 311 308 306 304 303 303 303 302 300 298 294 291 287 284 280 277 273 270 266 264 263 261 261 261 261 261 260 257 255 254 253 252 251 249 246 245 244 243 242 242 242 243 243 244 243 243 242 240 239 238 237 235 230 226 224 223 225 226 225 227 231 232 231 231 229 229 229 229 231 233 230 228 230 231 233 234 231 227 226 225
327 326 323 321 318 316 315 314 312 309 307 306 305 305 305 304 301 298 295 291 287 284 281 278 274 270 266 264 261 260 259 258 258 259 259 258 255 253 251 250 250 248 246 245 243 242 241 240 240 241 241 242 242 242 242 242 240 239 237 235 230 225 223 222 223 225 225 226 229 231 231 231 230 229 228 227 229 233 232 228 228 228 230 233 233 230 227 226
329 327 324 322 320 318 317 315 313 311 310 309 308 307 306 304 301 298 294 290 286 283 280 277 274 270 267 264 261 259 257 256 256 256 257 257 256 253 250 248 248 247 246 245 243 242 240 239 239 239 240 240 241 241 242 242 240 238 237 233 229 226 223 221 222 223 224 226 228 230 231 231 231 230 228 226 226 231 233 231 229 227 228 231 233 234 231 228
330 328 325 324 322 321 319 318 316 315 313 311 309 308 306 305 302 298 294 290 286 282 279 276 273 270 268 265 262 259 257 255 254 254 254 254 254 253 251 248 247 246 246 245 244 243 241 239 238 238 238 239 240 240 240 240 240 238 235 232 229 227 224 222 222 222 224 225 228 230 230 230 230 230 228 225 223 227 231 231 230 228 227 229 232 235 235 233
331 330 328 327 325 324 323 321 319 317 314 312 310 308 308 306 303 298 294 290 286 282 279 276 273 271 269 267 264 261 258 255 253 252 251 252 252 253 252 250 247 246 245 245 245 243 242 240 239 238 238 238 238 238 239 239 239 237 235 232 229 228 225 223 222 223 223 224 226 229 230 229 230 230 229 225 221 224 227 230 232 229 227 228 230 233 235 235
333 332 331 329 328 327 325 322 320 317 315 313 312 311 310 307 303 299 295 291 287 283 280 277 275 273 270 268 265 262 260 257 254 251 250 250 251 252 251 250 248 245 244 243 243 243 242 241 239 238 237 237 237 237 238 238 238 236 234 233 230 228 226 223 222 222 223 224 225 228 230 230 230 231 230 226 222 224 226 228 232 232 228 228 229 230 233 236
335 333 332 331 330 328 325 323 322 320 319 318 316 314 312 309 305 301 296 292 288 285 282 279 276 273 270 267 264 261 260 257 254 251 250 249 249 250 250 248 247 245 243 242 242 242 241 241 240 238 237 237 236 236 236 237 236 234 232 232 231 229 227 224 223 223 223 223 224 227 230 231 231 231 230 228 225 225 227 228 231 233 231 230 230 230 232 235
335 334 333 331 331 329 328 327 326 325 323 321 319 317 315 312 307 303 299 294 291 287 284 280 277 273 269 265 262 260 258 255 253 251 249 248 248 248 248 248 247 245 243 242 241 241 241 240 240 239 238 237 236 236 236 236 235 233 231 231 231 229 227 225 224 223 223 223 224 226 228 230 230 230 229 228 227 227 228 228 229 232 233 231 231 231 232 234
336 334 333 333 332 332 331 330 329 328 326 325 323 320 317 313 309 305 302 298 294 290 286 282 278 274 270 265 261 258 256 253 252 250 248 247 246 245 245 246 246 245 243 242 241 240 239 239 239 239 238 237 236 235 235 235 235 233 230 229 230 229 227 225 224 223 223 223 224 225 227 229 229 229 228 228 229 228 228 228 228 230 232 231 230 230 231 232
336 335 335 335 335 334 334 333 332 330 329 328 325 322 319 315 311 308 305 301 297 293 288 283 279 276 271 267 262 258 255 252 251 249 247 245 244 243 243 243 243 243 242 241 239 239 238 238 238 238 238 237 236 235 234 234 233 232 230 229 229 228 228 226 224 223 223 222 224 224 226 228 229 227 227 229 229 229 228 227 227 229 231 231 230 230 230 231
337 337 337 337 337 336 336 335 333 332 331 330 327 324 320 317 314 311 308 304 300 296 291 286 282 277 273 268 263 259 255 252 250 248 246 244 243 241 241 240 240 241 241 240 238 238 237 237 237 237 237 236 236 236 234 233 233 231 229 228 228 227 227 227 225 224 223 222 223 224 225 227 229 226 225 229 229 228 228 227 227 228 230 231 230 230 231 232
339 339 339 339 339 337 337 336 335 334 333 331 328 325 322 319 316 313 310 306 303 299 295 290 285 280 275 270 265 260 256 253 250 248 246 244 242 240 239 238 238 239 239 239 238 237 236 236 236 236 235 235 235 235 234 233 232 231 229 227 227 227 226 228 227 225 224 223 223 225 225 226 228 226 224 228 229 228 228 227 226 227 229 230 230 231 231 232
340 341 341 341 340 338 337 336 336 335 334 332 330 327 324 322 319 315 312 309 305 302 298 294 289 284 279 273 267 262 257 253 250 247 246 244 242 240 238 237 237 237 238 238 238 237 236 235 235 234 234 234 234 234 234 233 232 231 229 227 226 226 225 227 228 226 225 223 224 225 224 224 227 226 225 228 229 227 227 226 225 226 228 229 229 230 230 231
342 342 342 342 340 338 337 337 337 336 335 334 332 329 326 324 322 318 315 312 308 305 301 296 292 287 283 277 271 265 260 255 251 248 245 243 241 239 237 236 236 236 236 237 237 236 235 235 235 234 234 234 234 234 233 232 231 231 229 227 226 225 225 226 227 227 225 224 225 226 224 223 225 226 225 227 228 227 226 225 224 225 226 227 228 230 230 231
343 343 343 341 339 338 338 338 338 337 336 335 334 331 329 327 324 321 318 314 311 307 303 298 294 289 285 280 275 270 264 259 254 250 246 243 241 239 238 236 234 234 235 236 236 235 235 235 234 234 233 233 233 233 233 232 231 230 229 227 225 224 224 225 227 227 226 225 225 226 224 221 223 226 227 227 228 227 226 225 224 224 226 227 227 229 231 231
344 344 342 340 339 339 338 339 339 339 338 337 335 333 331 329 327 323 320 317 314 309 305 300 295 290 286 282 278 273 268 263 258 254 250 245 242 239 238 236 235 234 234 234 235 234 234 234 234 233 233 232 232 232 232 231 230 229 228 226 224 224 223 224 226 227 227 226 225 225 222 220 221 225 227 228 228 228 226 225 225 225 226 226 227 229 231 232
344 344 341 340 340 339 339 339 340 340 339 339 337 335 333 332 329 326 322 320 316 311 307 302 296 291 287 283 279 275 271 267 262 257 253 249 245 241 239 237 236 234 233 233 233 233 233 233 233 233 232 232 231 231 231 230 229 228 227 226 224 223 223 224 225 227 227 226 225 225 222 219 220 224 227 228 228 228 227 225 225 225 226 227 227 228 230 232
344 343 341 340 340 339 340 340 341 341 340 340 339 337 335 334 332 328 325 322 318 313 309 303 298 294 290 286 281 277 273 269 265 260 255 251 248 245 242 239 237 235 234 232 232 232 232 232 232 232 232 232 231 231 230 229 229 228 227 226 225 224 223 223 225 226 227 226 224 224 222 219 219 222 226 229 229 228 227 227 225 225 226 227 228 229 231 233
344 343 341 340 340 340 341 342 342 342 342 342 340 339 337 336 334 330 327 324 319 315 310 305 301 296 292 288 284 279 275 270 266 261 257 253 250 247 244 242 239 237 235 234 232 232 232 232 232 231 231 231 231 231 230 229 229 229 228 226 225 225 224 223 224 226 227 225 223 223 222 220 219 221 225 229 229 229 228 228 227 226 226 228 229 230 232 233
344 342 341 340 340 340 342 343 344 343 343 343 342 340 339 337 335 332 329 325 321 318 312 308 304 300 296 292 287 281 276 271 266 262 258 254 251 248 245 243 241 239 237 235 233 232 232 231 231 231 231 232 231 231 230 229 229 229 228 227 225 225 226 225 224 226 227 225 223 223 222 221 220 220 224 228 230 230 229 229 228 227 227 227 228 230 232 234
343 342 341 340 341 341 343 345 345 344 344 344 343 342 340 338 336 334 330 327 323 319 315 311 308 304 300 295 290 284 278 272 267 263 260 256 252 249 246 243 242 240 238 237 235 233 232 232 232 231 231 232 231 231 230 229 228 228 228 227 226 225 226 226 225 225 226 225 223 223 221 221 221 221 223 227 229 230 229 228 228 227 226 227 228 229 230 233
342 341 341 341 341 342 344 345 346 345 345 345 344 343 341 339 337 335 332 329 326 322 318 315 312 308 304 298 292 286 279 274 270 266 262 258 254 250 247 244 241 240 239 238 237 235 233 232 232 232 231 231 232 231 230 229 229 228 228 227 226 226 225 225 225 225 225 224 223 223 221 219 221 222 222 225 227 229 229 228 227 227 226 226 227 228 229 232
342 341 341 341 342 343 345 346 346 346 346 345 345 344 342 340 338 337 334 332 329 326 323 320 316 311 306 301 294 288 281 276 272 268 263 258 255 251 248 245 242 240 239 238 238 236 234 233 232 232 232 231 231 231 231 230 229 228 227 226 226 226 225 225 225 224 224 223 222 222 220 217 219 221 221 224 226 228 230 229 227 227 227 226 227 228 229 231
342 341 341 342 343 344 346 347 347 347 347 346 345 345 343 340 339 339 337 335 332 331 328 324 320 315 309 304 298 291 284 278 273 269 265 260 256 253 250 246 243 241 239 238 237 237 236 235 233 233 233 232 232 231 231 230 230 229 228 227 226 226 225 224 225 225 223 223 222 221 220 217 218 220 220 224 226 227 229 230 228 227 227 227 226 227 228 230
342 341 342 342 344 345 346 347 348 348 347 347 346 345 343 341 341 341 339 338 336 335 333 329 324 318 314 310 304 296 288 281 274 268 266 263 259 255 252 248 245 242 240 238 237 237 238 237 235 234 233 233 233 232 231 230 230 229 228 228 226 225 225 224 224 224 223 223 222 220 218 216 217 219 220 222 225 226 229 230 229 228 228 227 226 226 227 228
342 342 342 343 344 345 347 348 349 349 348 348 347 346 344 343 343 342 341 340 339 337 335 332 326 320 317 315 309 301 294 287 278 269 264 263 260 257 254 251 247 243 240 239 238 237 237 238 236 235 234 233 232 232 232 230 229 229 229 228 227 226 225 225 224 224 223 222 222 220 218 216 215 217 220 221 223 225 228 231 231 230 229 228 227 225 225 226
342 342 343 344 345 346 347 349 349 349 349 349 348 347 345 344 344 344 343 342 340 338 338 335 329 324 320 318 314 306 300 292 284 277 267 261 258 256 255 253 250 246 241 238 238 238 237 236 236 235 234 233 232 232 232 231 229 228 228 228 227 226 225 225 224 224 223 222 220 220 219 216 213 217 220 220 222 225 228 230 231 231 230 228 227 224 223 223
342 343 344 345 345 346 347 349 349 349 349 349 349 348 347 346 345 345 344 342 340 340 341 338 333 329 324 321 318 312 306 297 289 284 276 266 259 254 253 254 252 249 245 240 239 239 238 237 235 234 234 234 233 232 232 231 230 228 228 227 227 227 225 225 224 224 223 221 218 220 221 216 212 216 220 220 221 224 226 228 229 229 229 227 226 224 222 221
343 343 344 345 346 347 348 349 349 350 349 349 350 349 348 347 346 345 344 343 342 342 343 342 337 332 328 324 320 316 311 303 294 288 283 276 268 260 255 253 252 250 248 244 240 240 239 237 236 234 234 234 234 234 232 231 231 230 229 228 228 227 226 225 224 223 223 219 216 220 222 217 211 213 219 219 218 221 223 225 226 227 228 226 224 223 221 219
343 344 345 346 346 347 348 349 350 350 350 350 350 349 349 348 346 346 345 345 345 344 345 344 340 335 331 326 322 318 314 308 300 292 286 282 276 269 262 257 254 251 249 247 243 241 240 238 237 236 235 234 234 235 234 232 231 230 229 229 229 228 227 226 225 224 222 217 216 221 222 217 208 209 217 217 216 218 220 223 225 226 227 226 224 223 221 218
344 345 345 346 347 347 348 349 350 350 350 350 350 350 350 349 347 347 347 348 348 346 345 344 340 337 333 328 323 319 315 311 304 297 291 286 280 274 267 261 258 254 250 249 247 244 242 240 237 237 237 235 235 235 235 234 232 229 228 228 228 228 228 227 226 224 220 215 217 221 222 215 204 207 215 215 215 216 218 220 223 224 226 226 224 223 221 219
345 345 346 346 347 347 348 349 350 350 351 351 350 350 350 349 348 349 349 349 349 348 345 344 340 338 337 331 327 324 321 316 308 301 295 290 285 278 270 262 259 257 254 252 251 247 245 243 239 236 236 236 236 235 235 234 233 230 228 228 228 228 227 226 226 224 218 214 217 220 220 212 202 206 213 214 214 214 215 217 219 221 223 224 223 223 222 220
345 346 346 347 347 347 348 349 350 351 351 351 351 351 350 350 351 351 351 350 351 349 346 345 343 340 340 336 330 329 326 321 313 306 302 296 290 285 278 268 262 261 258 255 253 250 247 244 241 236 234 234 235 234 234 233 233 232 230 228 228 228 228 225 224 221 215 213 215 218 217 208 200 204 211 214 214 213 214 216 217 219 220 222 223 222 221 220
345 346 347 347 347 348 348 349 350 351 351 352 352 351 350 351 352 352 351 351 352 351 348 346 345 341 339 337 333 331 328 324 317 310 307 301 295 291 286 279 271 266 263 259 255 251 247 244 242 237 233 231 231 232 233 232 231 230 229 227 226 226 225 222 220 217 214 213 214 216 214 205 200 203 208 212 213 211 213 215 216 217 219 220 221 222 221 219
346 346 347 347 347 348 348 349 350 351 352 352 353 352 351 351 352 352 352 351 352 353 350 346 344 341 339 337 333 330 328 327 324 318 313 309 304 299 291 285 278 271 267 264 259 253 248 243 240 237 233 230 228 228 231 231 229 227 226 224 223 223 223 221 219 217 215 214 213 214 211 204 201 202 205 209 211 210 212 213 214 216 218 218 219 221 222 220
346 346 347 347 347 348 348 349 350 351 352 352 352 353 352 352 352 352 352 352 352 352 351 346 343 342 340 340 336 331 331 331 329 324 317 312 308 304 297 290 283 275 269 266 262 255 248 242 237 235 232 229 226 225 227 229 228 226 226 224 223 223 222 221 220 220 219 215 212 213 210 204 200 200 203 208 209 208 209 211 212 214 216 217 218 221 222 220
346 346 347 347 347 348 348 349 351 352 352 352 352 352 352 352 353 353 353 354 353 351 349 348 347 345 343 343 342 336 333 332 329 325 319 313 309 306 302 295 287 280 273 267 262 256 249 243 237 233 231 229 225 223 225 227 227 226 226 225 222 218 217 216 216 217 218 213 211 211 208 202 198 199 202 206 208 208 207 208 209 210 211 212 215 219 220 220
346 346 347 347 347 348 348 349 351 352 353 352 352 352 352 352 353 354 354 354 353 350 349 349 350 349 347 346 347 344 338 334 331 329 325 319 315 311 307 301 294 287 278 269 261 254 248 242 236 231 229 227 224 222 223 225 226 226 224 221 217 214 212 212 212 213 212 207 206 207 203 198 198 199 200 203 206 206 205 207 208 207 207 208 211 215 217 217
347 347 347 346 347 347 348 349 350 353 353 353 352 351 352 352 353 355 355 354 352 350 349 350 352 353 352 351 351 349 345 341 338 337 334 328 322 318 312 305 298 291 283 271 260 250 242 238 233 228 226 225 223 220 220 221 223 224 222 217 214 211 209 209 208 209 208 203 203 203 197 194 196 198 198 201 204 204 204 205 206 206 206 207 209 211 213 213
347 346 346 346 346 347 347 348 350 352 354 353 352 351 351 352 353 355 355 353 352 350 351 353 355 355 355 354 353 352 351 348 345 342 339 334 329 324 318 311 304 293 282 269 257 246 236 230 226 223 222 221 221 219 217 218 220 221 218 214 210 208 208 207 204 204 203 199 200 199 191 190 194 195 195 197 200 203 202 202 202 203 205 207 208 209 210 209
346 346 346 346 346 346 346 347 350 352 354 354 353 351 351 352 353 354 354 354 353 352 353 356 357 356 356 356 356 355 353 350 347 345 343 341 338 333 326 320 311 298 282 267 251 238 228 221 216 214 215 216 218 217 215 216 217 215 213 208 201 199 200 199 199 201 198 193 195 192 185 187 193 193 191 193 198 201 200 199 200 201 203 205 206 207 208 208
346 346 346 347 346 346 346 348 350 351 353 354 353 351 351 353 354 354 355 355 355 354 355 357 357 356 357 359 359 357 355 353 353 353 351 351 350 346 339 330 323 309 288 264 242 227 218 213 209 208 209 211 215 215 214 215 214 210 207 200 193 192 193 192 195 198 193 189 189 184 179 187 192 189 188 192 197 199 198 198 200 200 202 203 204 204 206 207
346 346 346 347 347 347 347 348 350 351 352 353 353 351 350 353 355 354 354 356 356 355 356 358 358 358 1 3 3 2 1 0 360 359 359 0 359 356 351 345 341 328 295 258 234 218 208 204 203 203 204 206 209 211 211 210 206 202 198 192 187 188 189 190 193 192 188 187 184 176 178 187 189 186 187 191 195 197 196 197 200 200 201 202 202 202 204 206
346 346 346 346 347 347 347 349 350 351 351 352 352 351 350 351 354 356 355 355 356 358 358 359 1 2 5 6 5 5 6 5 3 3 4 5 6 5 3 0 356 344 319 260 225 209 197 192 193 196 198 199 200 199 199 197 193 189 187 184 183 184 187 188 187 184 184 184 178 174 179 186 185 184 187 190 193 195 195 197 199 200 201 201 200 201 203 204
346 346 346 346 346 346 347 349 351 351 351 351 352 351 350 349 353 357 357 355 356 358 359 1 4 6 6 6 6 6 7 5 5 6 8 9 10 11 11 11 12 15 25 55 185 185 177 178 182 186 188 188 186 183 182 181 177 176 177 177 178 180 182 183 182 179 180 178 174 175 181 184 182 184 187 188 191 193 193 196 198 199 200 200 199 200 201 202
345 346 347 346 346 346 346 349 351 351 351 351 351 351 350 351 352 355 356 356 357 359 359 1 6 7 5 6 8 8 8 7 7 8 11 13 15 16 16 17 25 38 53 73 109 139 154 163 167 172 176 176 174 173 172 170 168 168 170 173 175 175 176 179 178 175 174 174 174 179 182 181 181 183 185 186 189 191 192 194 197 198 199 199 199 199 200 200
345 346 347 347 346 345 346 349 351 351 350 350 350 350 351 351 353 355 355 356 358 359 359 2 5 6 5 7 9 10 10 10 10 11 13 18 20 22 23 24 36 53 64 74 86 110 136 147 150 159 166 166 165 166 165 164 164 165 168 173 174 173 173 174 172 170 171 173 177 180 180 179 180 182 183 185 186 189 191 192 195 196 197 199 199 198 199 199
345 345 346 346 346 344 346 349 352 351 350 350 349 349 350 351 354 356 356 356 359 359 360 3 5 4 5 7 11 12 12 14 16 16 18 23 27 29 30 31 40 57 66 71 78 98 123 134 139 152 160 158 157 159 161 161 163 164 166 170 172 171 170 168 167 168 171 174 178 180 178 178 179 180 182 183 185 187 190 191 192 194 196 198 198 197 198 198
344 344 345 346 346 344 345 349 351 351 350 349 349 348 349 351 353 356 357 358 360 360 0 3 5 4 4 7 11 13 12 16 22 22 24 31 36 38 39 40 48 61 68 71 76 93 118 128 133 145 154 154 153 154 156 157 159 162 164 166 168 169 167 165 166 169 172 174 177 177 177 177 177 179 180 182 184 187 189 190 191 193 196 198 197 196 197 198
344 343 344 345 345 345 346 348 351 351 351 349 348 348 348 350 352 355 358 360 1 1 1 2 4 5 4 7 10 11 11 16 24 27 30 36 43 47 48 48 58 72 76 77 80 92 115 126 130 139 148 152 152 152 153 155 157 160 162 163 165 165 164 164 166 169 172 174 175 174 175 176 177 177 179 181 184 187 188 189 190 191 195 197 195 195 197 198
Height
10676 10673 10670 10666 10663 10660 10657 10653 10650 10647 10644 10641 10638 10636 10634 10632 10630 10628 10626 10623 10622 10619 10617 10615 10613 10612 10610 10610 10608 10607 10607 10607 10607 10609 10610 10611 10612 10613 10616 10618 10620 10622 10623 10624 10626 10629 10631 10633 10636 10638 10639 10641 10644 10648 10650 10654 10658 10661 10668 10680 10691 10700 10706 10709 10711 10713 10715 10709 10705 10709 10713 10718 10723 10724 10726 10729 10733 10741 10749 10751 10755 10761 10764 10767 10770 10774 10778 10781
10671 10668 10664 10661 10657 10654 10651 10648 10645 10642 10639 10635 10632 10630 10627 10625 10623 10621 10618 10615 10613 10611 10608 10606 10604 10603 10602 10601 10600 10599 10598 10597 10598 10599 10601 10602 10604 10605 10607 10609 10612 10614 10615 10617 10618 10621 10624 10626 10629 10631 10632 10634 10638 10641 10642 10646 10651 10656 10664 10674 10686 10695 10699 10701 10703 10704 10707 10703 10698 10700 10705 10711 10716 10717 10719 10724 10728 10735 10742 10746 10751 10755 10757 10761 10765 10768 10772 10775
10666 10663 10659 10656 10652 10649 10646 10643 10640 10636 10633 10629 10626 10623 10621 10618 10615 10613 10610 10607 10604 10601 10599 10596 10594 10593 10592 10591 10590 10589 10589 10588 10588 10589 10591 10593 10595 10596 10598 10600 10603 10605 10607 10608 10610 10612 10615 10619 10621 10622 10625 10627 10631 10633 10635 10640 10645 10651 10657 10668 10681 10688 10689 10693 10695 10696 10699 10695 10690 10694 10699 10704 10708 10711 10714 10719 10724 10730 10736 10742 10746 10749 10751 10755 10759 10763 10767 10770
10662 10658 10655 10651 10648 10644 10641 10637 10634 10630 10626 10623 10620 10617 10614 10611 10608 10604 10601 10598 10594 10591 10589 10586 10583 10582 10581 10580 10580 10579 10579 10578 10579 10579 10581 10583 10585 10587 10588 10590 10592 10595 10597 10599 10601 10603 10607 10610 10612 10614 10617 10620 10623 10625 10629 10634 10639 10645 10652 10664 10674 10677 10681 10686 10687 10687 10689 10687 10685 10688 10692 10697 10701 10704 10710 10716 10721 10726 10731 10737 10740 10742 10745 10748 10752 10757 10761 10765
10658 10654 10650 10646 10643 10639 10636 10632 10628 10624 10620 10616 10613 10609 10606 10603 10599 10595 10591 10588 10584 10581 10578 10575 10573 10570 10569 10569 10568 10568 10568 10568 10569 10570 10571 10573 10574 10575 10577 10579 10582 10584 10587 10589 10592 10594 10598 10602 10604 10606 10609 10612 10615 10618 10624 10627 10631 10638 10648 10658 10663 10666 10672 10675 10676 10677 10679 10680 10680 10681 10686 10692 10693 10696 10704 10713 10720 10723 10725 10730 10732 10736 10740 10743 10747 10751 10756 10761
10653 10649 10645 10641 10637 10634 10630 10626 10622 10617 10613 10609 10605 10601 10598 10594 10590 10586 10581 10577 10573 10569 10566 10564 10561 10559 10558 10557 10556 10556 10556 10557 10559 10559 10560 10561 10562 10563 10565 10569 10572 10575 10577 10580 10583 10586 10590 10594 10596 10598 10601 10605 10608 10612 10617 10618 10623 10632 10643 10649 10653 10658 10662 10665 10667 10669 10672 10674 10675 10676 10681 10682 10682 10688 10699 10709 10717 10717 10716 10721 10724 10730 10736 10739 10744 10748 10753 10757
10649 10644 10640 10636 10632 10628 10624 10620 10615 10611 10606 10602 10597 10592 10588 10584 10580 10575 10571 10567 10562 10558 10554 10552 10550 10548 10547 10546 10544 10544 10544 10547 10548 10548 10548 10549 10549 10552 10555 10560 10563 10566 10569 10571 10574 10578 10582 10585 10588 10590 10594 10597 10600 10606 10608 10610 10617 10627 10636 10640 10645 10649 10653 10657 10660 10662 10665 10669 10672 10669 10668 10671 10677 10684 10692 10703 10712 10708 10708 10714 10718 10726 10732 10736 10740 10745 10749 10752
10644 10639 10635 10630 10626 10622 10618 10614 10609 10604 10599 10594 10589 10583 10578 10573 10568 10564 10560 10555 10551 10546 10542 10539 10537 10537 10536 10534 10532 10532 10532 10535 10536 10536 10537 10537 10538 10542 10545 10548 10552 10556 10559 10561 10565 10569 10572 10576 10579 10583 10586 10589 10594 10598 10600 10604 10610 10620 10628 10632 10637 10641 10645 10650 10652 10656 10659 10663 10665 10660 10660 10669 10676 10679 10683 10695 10705 10703 10704 10711 10714 10721 10728 10731 10736 10741 10744 10747
10639 10634 10630 10625 10621 10616 10612 10607 10602 10597 10592 10586 10580 10574 10568 10562 10556 10552 10548 10544 10539 10535 10531 10527 10525 10524 10524 10522 10520 10519 10521 10523 10523 10523 10524 10525 10527 10530 10533 10536 10540 10545 10548 10551 10555 10559 10563 10567 10570 10574 10578 10581 10586 10589 10592 10596 10601 10612 10620 10624 10630 10634 10638 10642 10646 10649 10651 10654 10655 10654 10660 10667 10669 10669 10675 10690 10701 10701 10703 10709 10713 10717 10723 10729 10734 10738 10740 10742
10634 10629 10624 10620 10615 10610 10605 10600 10595 10589 10583 10577 10571 10564 10558 10551 10545 10540 10535 10531 10527 10523 10519 10515 10512 10511 10510 10509 10508 10508 10508 10508 10508 10510 10512 10514 10517 10520 10522 10525 10529 10534 10538 10542 10546 10550 10554 10557 10561 10565 10569 10573 10578 10581 10585 10589 10595 10605 10612 10617 10622 10626 10631 10635 10638 10640 10643 10646 10648 10652 10656 10656 10655 10658 10672 10688 10696 10697 10700 10707 10711 10714 10720 10726 10730 10734 10735 10737
10630 10624 10619 10614 10608 10603 10597 10592 10586 10581 10574 10568 10561 10554 10548 10540 10534 10528 10523 10518 10514 10510 10506 10503 10500 10498 10497 10496 10496 10496 10495 10494 10495 10498 10501 10503 10507 10509 10512 10514 10518 10523 10528 10532 10536 10541 10545 10548 10551 10556 10560 10565 10569 10572 10576 10581 10588 10596 10603 10609 10613 10617 10622 10625 10629 10631 10634 10639 10642 10646 10645 10640 10641 10653 10675 10687 10688 10690 10696 10702 10707 10710 10714 10720 10725 10727 10730 10732
10624 10619 10613 10607 10601 10595 10590 10584 10578 10572 10566 10559 10551 10544 10537 10529 10523 10517 10511 10506 10501 10498 10494 10492 10490 10487 10485 10484 10484 10483 10482 10482 10484 10486 10489 10491 10494 10497 10501 10504 10507 10511 10515 10520 10525 10530 10534 10538 10541 10546 10551 10557 10560 10562 10566 10574 10580 10587 10594 10601 10604 10609 10613 10617 10621 10622 10627 10632 10634 10635 10632 10628 10635 10657 10680 10681 10678 10684 10689 10696 10701 10704 10707 10713 10718 10721 10725 10727
10619 10613 10607 10600 10594 10588 10582 10576 10570 10563 10557 10549 10541 10534 10526 10519 10512 10506 10500 10495 10490 10486 10483 10482 10480 10477 10474 10474 10473 10472 10472 10472 10473 10474 10476 10479 10482 10486 10490 10493 10496 10498 10502 10508 10514 10518 10523 10527 10531 10537 10542 10546 10549 10552 10560 10567 10571 10578 10585 10590 10595 10600 10606 10611 10613 10614 10619 10624 10624 10622 10621 10626 10637 10662 10677 10669 10668 10676 10681 10689 10694 10697 10700 10705 10711 10715 10719 10722
10614 10607 10600 10594 10587 10581 10575 10569 10562 10555 10548 10541 10532 10523 10515 10508 10501 10495 10490 10485 10481 10477 10474 10472 10470 10467 10465 10464 10464 10462 10462 10462 10463 10464 10465 10468 10471 10475 10479 10482 10484 10486 10490 10496 10503 10508 10512 10517 10521 10526 10531 10536 10540 10544 10552 10557 10562 10568 10574 10580 10586 10592 10599 10603 10604 10606 10611 10614 10613 10609 10615 10629 10641 10659 10668 10657 10659 10668 10673 10681 10686 10689 10693 10697 10704 10708 10713 10717
10608 10601 10594 10588 10581 10574 10568 10561 10555 10547 10539 10532 10522 10513 10505 10499 10492 10485 10480 10476 10472 10468 10465 10462 10460 10458 10456 10455 10454 10453 10452 10452 10453 10454 10455 10458 10461 10464 10468 10472 10474 10477 10480 10485 10492 10497 10502 10506 10510 10516 10521 10526 10531 10535 10542 10547 10553 10558 10564 10573 10579 10585 10591 10593 10593 10598 10601 10603 10602 10599 10615 10635 10641 10652 10657 10646 10648 10657 10664 10671 10676 10680 10684 10690 10696 10700 10706 10711
10603 10596 10588 10582 10575 10568 10561 10554 10547 10539 10531 10523 10514 10504 10495 10489 10483 10477 10472 10468 10465 10461 10457 10454 10452 10449 10447 10446 10445 10443 10443 10443 10444 10445 10446 10448 10450 10453 10457 10460 10463 10466 10469 10475 10481 10486 10491 10495 10500 10506 10512 10517 10521 10526 10531 10536 10543 10549 10556 10566 10571 10575 10580 10581 10581 10587 10590 10592 10592 10597 10620 10637 10638 10642 10642 10633 10636 10645 10653 10660 10666 10672 10676 10683 10689 10693 10699 10704
10597 10590 10583 10576 10569 10561 10554 10547 10540 10532 10523 10514 10505 10496 10487 10481 10475 10469 10464 10461 10457 10454 10450 10447 10444 10442 10439 10438 10436 10435 10434 10435 10436 10436 10437 10439 10440 10443 10445 10448 10452 10455 10459 10464 10469 10475 10480 10484 10490 10497 10502 10506 10511 10515 10520 10527 10535 10541 10547 10555 10558 10562 10567 10569 10571 10577 10581 10583 10588 10598 10619 10632 10631 10630 10627 10623 10625 10632 10643 10651 10659 10666 10670 10676 10682 10687 10692 10698
10592 10585 10578 10570 10563 10555 10547 10540 10532 10524 10516 10506 10496 10488 10480 10473 10467 10461 10457 10453 10450 10446 10443 10440 10437 10434 10432 10430 10428 10427 10426 10426 10427 10427 10428 10429 10430 10432 10435 10438 10442 10445 10450 10454 10459 10464 10469 10474 10480 10485 10491 10496 10500 10503 10509 10517 10524 10527 10533 10539 10544 10549 10555 10560 10563 10568 10571 10576 10583 10595 10613 10624 10623 10618 10614 10613 10614 10622 10635 10645 10653 10660 10664 10670 10676 10681 10687 10692
10587 10580 10572 10565 10557 10549 10541 10533 10525 10516 10508 10499 10489 10480 10472 10467 10461 10455 10450 10447 10442 10438 10436 10433 10429 10426 10424 10422 10420 10419 10418 10418 10418 10419 10418 10419 10421 10424 10426 10429 10432 10436 10440 10444 10448 10453 10458 10463 10469 10474 10479 10483 10486 10490 10495 10504 10509 10513 10520 10527 10533 10540 10546 10551 10555 10558 10560 10568 10579 10591 10607 10615 10612 10609 10604 10602 10605 10614 10627 10637 10646 10654 10660 10665 10671 10676 10681 10686
10582 10575 10568 10559 10551 10543 10536 10527 10518 10509 10500 10492 10483 10474 10466 10460 10455 10449 10443 10440 10436 10432 10429 10425 10422 10418 10416 10414 10412 10411 10410 10409 10410 10410 10409 10410 10413 10415 10418 10420 10423 10426 10430 10434 10438 10443 10447 10452 10457 10462 10465 10467 10472 10477 10484 10493 10498 10504 10512 10519 10526 10532 10538 10543 10547 10549 10552 10562 10575 10587 10598 10602 10602 10601 10595 10592 10597 10607 10620 10631 10641 10651 10657 10663 10668 10673 10677 10681
10577 10571 10563 10554 10546 10538 10530 10521 10512 10503 10494 10485 10476 10467 10460 10454 10449 10443 10437 10433 10429 10425 10421 10418 10415 10411 10409 10407 10405 10403 10402 10401 10400 10400 10401 10403 10405 10407 10409 10411 10414 10417 10420 10424 10429 10433 10437 10442 10445 10447 10450 10454 10461 10468 10476 10484 10490 10496 10504 10512 10519 10524 10529 10535 10539 10541 10543 10554 10569 10578 10586 10592 10595 10594 10589 10587 10592 10605 10618 10629 10639 10649 10655 10660 10666 10671 10675 10678
10572 10566 10558 10549 10541 10532 10524 10516 10506 10496 10487 10479 10470 10461 10454 10448 10443 10438 10433 10427 10422 10418 10414 10410 10407 10404 10402 10399 10397 10396 10394 10392 10391 10391 10393 10395 10397 10398 10400 10402 10405 10408 10411 10414 10418 10423 10427 10431 10432 10434 10438 10444 10452 10460 10467 10475 10481 10488 10495 10502 10510 10516 10521 10525 10530 10532 10535 10549 10563 10569 10577 10585 10588 10589 10586 10584 10591 10604 10617 10625 10635 10644 10650 10657 10663 10668 10672 10675
10568 10561 10553 10544 10536 10527 10519 10510 10500 10490 10480 10473 10464 10456 10449 10443 10438 10433 10428 10423 10418 10413 10407 10403 10400 10397 10395 10392 10390 10388 10386 10384 10382 10383 10385 10387 10388 10390 10392 10394 10396 10398 10400 10404 10409 10414 10418 10419 10419 10423 10430 10436 10443 10450 10457 10464 10471 10478 10485 10493 10500 10506 10510 10514 10519 10524 10529 10543 10555 10559 10569 10579 10581 10582 10583 10583 10590 10600 10608 10616 10625 10634 10644 10652 10658 10664 10668 10673
10564 10556 10548 10540 10531 10522 10514 10505 10495 10484 10474 10466 10458 10451 10444 10439 10434 10429 10423 10418 10413 10408 10403 10398 10394 10391 10388 10385 10383 10381 10379 10377 10375 10376 10377 10379 10380 10381 10383 10386 10388 10389 10392 10396 10400 10405 10406 10407 10409 10415 10421 10427 10433 10440 10447 10454 10460 10467 10474 10482 10490 10494 10498 10503 10509 10515 10523 10534 10543 10548 10557 10568 10573 10576 10580 10582 10586 10591 10597 10607 10617 10628 10639 10648 10653 10660 10667 10672
10560 10552 10544 10535 10526 10518 10509 10500 10490 10479 10469 10460 10452 10445 10439 10433 10429 10423 10418 10412 10407 10402 10397 10392 10388 10385 10382 10379 10377 10375 10373 10371 10370 10369 10370 10371 10371 10373 10375 10377 10379 10381 10384 10388 10391 10393 10394 10395 10400 10406 10411 10417 10423 10430 10436 10442 10449 10455 10462 10470 10477 10480 10486 10493 10498 10505 10514 10522 10530 10537 10546 10560 10566 10570 10577 10579 10580 10586 10592 10602 10615 10626 10636 10644 10651 10658 10666 10671
10556 10548 10539 10531 10522 10513 10505 10496 10486 10475 10464 10455 10447 10439 10433 10427 10423 10417 10412 10407 10401 10396 10391 10386 10382 10379 10376 10374 10372 10370 10368 10366 10365 10363 10362 10364 10364 10366 10366 10368 10371 10373 10376 10380 10381 10382 10382 10385 10392 10398 10404 10410 10415 10421 10425 10431 10437 10443 10452 10459 10464 10468 10474 10483 10488 10494 10505 10512 10519 10527 10539 10554 10560 10565 10576 10575 10576 10584 10589 10597 10611 10622 10630 10639 10648 10656 10662 10668
10552 10544 10535 10526 10518 10509 10500 10491 10481 10471 10461 10451 10443 10435 10429 10422 10417 10412 10407 10402 10396 10391 10386 10381 10376 10372 10370 10369 10366 10364 10362 10361 10360 10358 10357 10357 10358 10358 10358 10360 10363 10365 10369 10372 10373 10373 10373 10378 10386 10392 10397 10401 10406 10410 10412 10418 10426 10434 10443 10447 10451 10458 10464 10472 10478 10485 10497 10503 10507 10519 10534 10546 10554 10564 10572 10569 10572 10581 10584 10593 10609 10619 10627 10636 10645 10652 10658 10664
10548 10540 10531 10522 10513 10505 10496 10487 10478 10467 10458 10448 10440 10432 10425 10418 10412 10407 10401 10396 10391 10387 10382 10377 10372 10367 10365 10364 10361 10358 10357 10355 10353 10353 10353 10351 10351 10351 10351 10352 10355 10358 10361 10363 10364 10365 10366 10371 10378 10383 10387 10390 10393 10394 10397 10407 10417 10425 10431 10434 10440 10448 10456 10464 10470 10477 10486 10489 10498 10517 10530 10539 10553 10563 10563 10563 10571 10579 10585 10597 10609 10617 10625 10633 10640 10648 10653 10658
10544 10536 10527 10518 10509 10500 10491 10482 10473 10464 10454 10445 10437 10429 10421 10414 10408 10403 10397 10392 10388 10384 10379 10373 10368 10364 10360 10359 10357 10353 10352 10350 10346 10346 10347 10347 10346 10345 10344 10345 10347 10350 10353 10356 10356 10356 10358 10362 10368 10373 10375 10377 10380 10382 10389 10397 10405 10411 10416 10421 10430 10438 10447 10454 10459 10467 10471 10478 10499 10519 10526 10537 10553 10556 10553 10561 10574 10583 10592 10600 10605 10611 10619 10626 10634 10641 10647 10652
10540 10532 10523 10514 10505 10496 10487 10477 10468 10459 10450 10442 10434 10426 10419 10412 10405 10400 10394 10390 10385 10380 10375 10370 10364 10360 10356 10353 10352 10349 10347 10345 10342 10340 10340 10341 10341 10340 10339 10339 10340 10343 10345 10348 10348 10347 10351 10355 10359 10363 10363 10365 10369 10374 10380 10386 10393 10400 10405 10412 10419 10427 10436 10441 10448 10456 10459 10476 10506 10518 10520 10532 10545 10548 10552 10566 10581 10587 10591 10593 10596 10603 10610 10619 10627 10634 10641 10647
10537 10528 10519 10510 10501 10492 10483 10473 10464 10455 10446 10437 10430 10423 10416 10410 10403 10397 10392 10387 10381 10375 10371 10366 10361 10356 10353 10349 10346 10344 10343 10341 10338 10336 10334 10335 10335 10334 10334 10334 10334 10336 10337 10339 10340 10341 10344 10347 10350 10352 10354 10357 10361 10365 10371 10376 10383 10391 10398 10404 10410 10417 10425 10429 10438 10444 10454 10485 10512 10513 10511 10521 10537 10549 10556 10567 10577 10578 10579 10584 10590 10596 10603 10612 10620 10627 10634 10641
10533 10524 10516 10507 10498 10488 10480 10471 10461 10452 10442 10433 10425 10419 10413 10406 10400 10394 10389 10383 10376 10370 10366 10362 10358 10353 10349 10346 10342 10339 10338 10336 10334 10332 10330 10329 10329 10329 10329 10328 10328 10330 10330 10330 10332 10335 10337 10339 10342 10344 10347 10351 10353 10357 10361 10367 10375 10383 10391 10396 10401 10409 10413 10419 10430 10440 10461 10495 10509 10501 10497 10510 10535 10551 10551 10557 10566 10568 10574 10581 10586 10592 10598 10606 10613 10620 10627 10634
10530 10521 10512 10504 10494 10485 10477 10468 10459 10450 10439 10430 10422 10416 10410 10403 10397 10391 10384 10378 10372 10365 10361 10358 10355 10351 10346 10342 10339 10336 10334 10332 10329 10327 10326 10325 10324 10324 10323 10323 10323 10324 10324 10323 10325 10328 10330 10332 10334 10337 10341 10344 10346 10350 10353 10359 10366 10373 10380 10385 10390 10397 10403 10415 10429 10442 10468 10493 10494 10484 10483 10501 10532 10544 10540 10549 10559 10564 10572 10577 10581 10587 10593 10600 10608 10615 10622 10630
10527 10518 10509 10500 10492 10482 10473 10465 10456 10447 10438 10429 10420 10413 10407 10401 10395 10387 10379 10373 10367 10362 10357 10353 10349 10347 10344 10339 10335 10332 10329 10327 10325 10322 10322 10320 10319 10319 10319 10318 10318 10317 10318 10318 10319 10322 10323 10325 10327 10331 10334 10336 10339 10343 10346 10350 10356 10364 10372 10376 10381 10389 10399 10414 10426 10440 10464 10478 10473 10465 10468 10495 10527 10536 10536 10544 10551 10558 10564 10568 10573 10580 10587 10594 10601 10608 10617 10626
10523 10515 10506 10497 10489 10480 10470 10461 10452 10443 10435 10427 10418 10411 10404 10398 10390 10382 10376 10370 10364 10358 10352 10348 10343 10339 10337 10335 10331 10328 10325 10323 10321 10317 10317 10316 10314 10313 10313 10313 10313 10312 10313 10313 10314 10316 10317 10318 10320 10325 10328 10329 10332 10335 10338 10343 10350 10358 10364 10370 10381 10389 10396 10406 10417 10433 10450 10452 10443 10441 10456 10493 10523 10529 10533 10537 10543 10552 10558 10563 10570 10576 10583 10589 10596 10604 10612 10620
10520 10512 10504 10495 10487 10478 10468 10458 10450 10441 10432 10424 10416 10408 10401 10394 10387 10381 10375 10369 10363 10357 10349 10344 10339 10334 10331 10329 10326 10324 10321 10320 10318 10314 10312 10311 10310 10309 10309 10308 10308 10308 10308 10309 10309 10310 10312 10313 10315 10318 10321 10323 10326 10329 10332 10337 10343 10349 10355 10366 10375 10375 10376 10388 10403 10418 10425 10423 10425 10435 10462 10497 10514 10518 10525 10530 10538 10549 10555 10561 10570 10574 10579 10585 10592 10600 10606 10614
10517 10509 10502 10493 10485 10476 10466 10457 10448 10438 10429 10421 10414 10407 10398 10391 10386 10380 10374 10367 10361 10356 10350 10344 10339 10335 10330 10326 10323 10321 10319 10316 10314 10312 10309 10307 10306 10305 10305 10304 10304 10304 10304 10304 10305 10306 10307 10308 10310 10312 10315 10317 10320 10324 10327 10330 10335 10341 10346 10352 10354 10356 10369 10388 10402 10408 10408 10412 10427 10446 10471 10494 10503 10511 10520 10524 10532 10544 10551 10560 10567 10571 10576 10582 10590 10596 10601 10609
10514 10506 10499 10491 10483 10474 10465 10455 10446 10436 10426 10418 10412 10405 10398 10391 10385 10379 10372 10366 10359 10354 10350 10345 10340 10335 10330 10326 10321 10317 10315 10313 10311 10310 10307 10304 10303 10302 10301 10301 10300 10300 10300 10300 10301 10302 10303 10304 10306 10307 10309 10312 10315 10318 10321 10323 10328 10333 10338 10343 10351 10364 10380 10393 10401 10405 10407 10420 10440 10455 10472 10490 10502 10512 10518 10520 10529 10539 10547 10556 10562 10567 10574 10581 10588 10591 10596 10604
10513 10504 10496 10488 10480 10472 10463 10454 10445 10435 10424 10416 10409 10403 10398 10391 10385 10379 10372 10365 10358 10352 10348 10344 10339 10334 10329 10326 10322 10317 10313 10310 10309 10307 10305 10303 10301 10299 10298 10298 10297 10297 10297 10297 10298 10299 10300 10301 10302 10304 10306 10308 10311 10314 10317 10320 10324 10330 10337 10346 10355 10365 10373 10379 10386 10392 10402 10422 10440 10451 10468 10487 10500 10507 10511 10517 10526 10534 10543 10551 10557 10564 10571 10578 10583 10585 10591 10599
10511 10502 10493 10485 10477 10469 10461 10452 10444 10435 10424 10414 10407 10401 10396 10390 10384 10378 10371 10364 10359 10353 10348 10342 10338 10333 10328 10324 10320 10316 10313 10310 10307 10305 10303 10301 10299 10297 10296 10295 10295 10295 10295 10295 10295 10296 10297 10298 10299 10301 10302 10304 10307 10311 10314 10318 10323 10328 10335 10343 10349 10355 10361 10367 10373 10382 10397 10418 10432 10444 10462 10481 10492 10498 10505 10513 10521 10530 10541 10550 10556 10561 10566 10571 10575 10579 10586 10594
10508 10499 10491 10482 10474 10466 10459 10450 10441 10433 10424 10415 10406 10399 10393 10388 10382 10376 10369 10364 10359 10354 10348 10342 10336 10331 10326 10322 10318 10315 10312 10309 10306 10304 10301 10299 10297 10296 10294 10293 10293 10293 10293 10293 10293 10294 10294 10295 10297 10298 10300 10301 10304 10307 10311 10315 10319 10324 10331 10337 10343 10349 10354 10360 10370 10385 10401 10417 10428 10440 10457 10473 10484 10493 10502 10510 10518 10528 10538 10546 10553 10557 10561 10565 10569 10575 10581 10588
10508 10500 10491 10482 10473 10464 10457 10450 10442 10434 10426 10417 10408 10400 10392 10387 10382 10376 10370 10364 10358 10352 10346 10340 10334 10329 10325 10321 10317 10314 10311 10308 10305 10302 10300 10298 10296 10294 10293 10292 10291 10291 10291 10291 10291 10292 10292 10293 10294 10296 10297 10299 10301 10304 10308 10312 10316 10321 10328 10333 10339 10348 10356 10365 10377 10387 10396 10410 10423 10436 10454 10468 10476 10485 10495 10505 10513 10520 10528 10536 10543 10548 10554 10560 10565 10571 10577 10583
10509 10501 10492 10483 10474 10464 10455 10447 10440 10434 10426 10419 10411 10403 10396 10389 10383 10377 10372 10365 10358 10351 10344 10339 10334 10329 10325 10321 10317 10314 10310 10307 10304 10302 10299 10297 10295 10293 10292 10291 10290 10289 10289 10289 10290 10290 10290 10291 10292 10294 10296 10297 10300 10303 10306 10309 10313 10319 10325 10330 10338 10346 10353 10363 10373 10379 10388 10403 10415 10431 10450 10461 10464 10473 10486 10495 10500 10505 10515 10527 10534 10540 10547 10553 10560 10568 10574 10579
10510 10502 10493 10484 10475 10466 10455 10444 10435 10428 10423 10417 10410 10403 10398 10391 10384 10377 10372 10366 10358 10351 10345 10340 10335 10331 10326 10322 10318 10314 10310 10307 10304 10301 10299 10297 10294 10293 10291 10290 10289 10289 10289 10289 10289 10289 10290 10291 10292 10293 10295 10297 10299 10303 10306 10310 10314 10319 10324 10330 10336 10342 10348 10356 10363 10373 10387 10400 10410 10427 10443 10449 10455 10469 10480 10485 10490 10498 10511 10523 10529 10535 10543 10549 10557 10565 10571 10577
10507 10499 10491 10484 10476 10466 10456 10444 10432 10424 10418 10412 10406 10399 10394 10391 10386 10378 10370 10365 10360 10353 10346 10341 10336 10331 10326 10321 10317 10314 10310 10307 10304 10301 10299 10297 10295 10293 10292 10290 10289 10289 10289 10289 10289 10289 10290 10291 10292 10293 10295 10298 10300 10304 10307 10311 10315 10320 10325 10330 10335 10341 10348 10355 10363 10377 10392 10401 10411 10426 10434 10439 10451 10464 10471 10477 10486 10498 10512 10522 10528 10534 10541 10548 10556 10563 10569 10575
10505 10497 10489 10482 10475 10467 10458 10447 10435 10425 10417 10410 10405 10398 10391 10387 10385 10380 10371 10364 10360 10354 10347 10341 10335 10330 10325 10321 10318 10314 10311 10307 10305 10302 10299 10297 10296 10294 10292 10291 10289 10289 10289 10289 10289 10290 10290 10291 10293 10294 10296 10299 10302 10306 10309 10312 10315 10320 10324 10330 10335 10341 10348 10356 10366 10377 10389 10400 10413 10422 10425 10430 10444 10455 10463 10472 10485 10498 10512 10522 10529 10535 10541 10549 10556 10562 10568 10574
10504 10496 10488 10479 10471 10465 10458 10449 10439 10428 10419 10412 10406 10400 10393 10385 10381 10377 10372 10365 10358 10352 10346 10341 10335 10330 10326 10323 10320 10316 10312 10309 10306 10303 10301 10298 10297 10295 10293 10292 10291 10290 10290 10291 10291 10291 10292 10293 10294 10296 10298 10301 10304 10306 10309 10312 10316 10320 10325 10330 10336 10342 10350 10358 10365 10372 10383 10398 10410 10414 10416 10424 10437 10448 10458 10472 10486 10499 10511 10521 10527 10535 10542 10549 10555 10561 10567 10572
10502 10495 10487 10478 10469 10462 10455 10447 10438 10428 10419 10412 10406 10401 10396 10388 10381 10376 10372 10366 10359 10352 10347 10341 10336 10332 10329 10325 10321 10317 10314 10311 10308 10305 10302 10300 10298 10296 10295 10293 10292 10292 10292 10292 10292 10292 10293 10294 10296 10298 10300 10302 10305 10307 10310 10313 10317 10321 10326 10331 10335 10341 10347 10354 10360 10370 10383 10396 10402 10405 10411 10423 10435 10447 10460 10474 10486 10498 10509 10518 10526 10536 10543 10549 10554 10560 10565 10570
10500 10492 10485 10478 10470 10462 10454 10446 10437 10428 10419 10412 10406 10401 10396 10391 10385 10378 10372 10366 10361 10355 10349 10343 10337 10334 10331 10327 10323 10320 10316 10313 10310 10307 10304 10302 10300 10298 10297 10295 10294 10293 10293 10293 10294 10294 10295 10296 10298 10300 10301 10304 10307 10310 10312 10315 10318 10321 10326 10331 10335 10339 10344 10352 10362 10372 10382 10390 10396 10402 10413 10425 10438 10450 10463 10475 10486 10497 10507 10516 10526 10535 10541 10546 10551 10557 10562 10567
10497 10489 10483 10477 10469 10461 10453 10446 10437 10428 10419 10411 10406 10401 10396 10392 10387 10381 10374 10367 10361 10355 10350 10344 10340 10336 10333 10329 10325 10322 10319 10316 10312 10309 10306 10304 10302 10300 10298 10297 10296 10295 10295 10295 10296 10296 10297 10298 10300 10301 10303 10306 10309 10312 10315 10318 10320 10323 10328 10333 10339 10342 10347 10354 10363 10371 10378 10386 10395 10405 10417 10429 10441 10453 10464 10475 10487 10497 10506 10514 10523 10530 10536 10542 10549 10555 10560 10565
10496 10489 10481 10475 10468 10460 10451 10444 10437 10428 10419 10411 10405 10399 10395 10391 10387 10383 10378 10371 10363 10357 10352 10347 10343 10339 10336 10332 10328 10324 10322 10318 10315 10312 10309 10306 10304 10302 10301 10300 10299 10298 10297 10297 10298 10299 10299 10300 10302 10304 10306 10309 10311 10314 10317 10320 10323 10326 10330 10335 10340 10345 10350 10357 10364 10371 10379 10387 10397 10410 10423 10434 10445 10457 10468 10479 10488 10495 10503 10511 10519 10527 10534 10541 10547 10553 10558 10563
10494 10486 10478 10472 10466 10459 10450 10442 10436 10429 10420 10411 10404 10399 10394 10390 10386 10383 10378 10372 10366 10361 10356 10350 10346 10342 10338 10334 10330 10327 10324 10321 10317 10314 10312 10309 10307 10305 10304 10303 10301 10300 10300 10300 10301 10302 10302 10303 10304 10307 10309 10312 10314 10316 10319 10322 10325 10329 10333 10338 10342 10348 10354 10360 10367 10376 10385 10394 10406 10419 10430 10439 10448 10458 10469 10480 10488 10495 10502 10510 10517 10524 10531 10538 10544 10550 10555 10560